Theta_e
290 290 285 287 288 283 284 286 285 287 283 284 278 275 276 277 277 277 277 276 276 276 277 278 278 279 279 280 281 283 285 286 289 291 296 301 312 315 317 317 320 321 323 323
285 288 288 289 289 289 287 285 286 284 280 274 276 277 277 277 276 276 276 276 276 276 276 277 277 278 279 280 281 282 283 285 287 289 294 300 311 311 315 316 317 322 322 323
291 277 281 286 287 287 284 274 281 279 281 270 271 275 276 276 276 275 275 275 275 275 276 276 277 277 278 279 280 281 282 284 285 286 292 299 304 306 312 314 315 316 322 322
289 281 287 285 274 276 282 278 273 271 272 271 273 277 276 276 275 275 274 274 275 275 276 276 277 277 278 279 280 280 281 283 284 285 289 295 299 304 307 312 313 316 318 322
291 284 284 288 278 277 280 282 277 277 273 274 275 275 275 275 275 274 274 274 274 275 275 276 276 277 278 279 279 280 281 282 283 284 287 291 297 300 303 309 312 313 315 319
286 288 286 282 272 274 274 283 274 275 274 274 275 274 272 274 275 274 274 274 274 275 275 275 276 276 277 278 279 279 280 281 282 283 285 289 293 296 299 304 309 310 312 315
292 292 288 278 274 274 282 283 272 273 274 274 273 273 274 274 274 273 273 273 274 274 275 275 275 275 276 277 278 279 280 281 282 283 285 288 291 292 296 300 305 309 311 311
290 290 290 277 275 281 278 273 275 275 276 275 275 275 274 273 273 273 273 273 273 274 274 275 275 275 276 277 277 279 279 280 282 283 284 286 288 291 294 297 301 304 307 310
289 289 277 278 277 278 277 276 275 276 275 275 274 274 273 273 272 272 272 272 273 273 274 274 275 274 275 276 277 278 279 280 281 282 283 284 287 289 292 295 299 303 305 308
288 280 278 277 276 277 277 277 276 276 275 274 274 273 272 272 271 271 272 272 272 273 273 274 274 275 274 275 276 277 278 279 280 281 281 284 286 287 289 291 295 300 302 304
283 277 276 276 276 276 276 275 275 274 274 273 273 272 271 271 271 271 271 272 272 272 273 273 274 274 274 275 276 276 278 278 279 280 281 283 285 286 287 289 291 295 299 302
286 278 279 276 276 276 275 274 273 273 272 272 271 271 271 270 270 270 271 271 271 272 272 273 273 274 274 274 275 276 277 278 278 278 280 282 283 286 287 288 290 292 295 298
276 275 274 273 274 273 273 272 272 272 271 271 270 270 270 270 270 269 270 270 271 271 272 272 273 273 274 274 275 275 276 277 278 278 279 280 282 284 285 290 290 291 293 296
272 273 271 271 271 271 272 271 270 270 270 270 270 269 269 269 269 270 270 270 271 271 271 272 272 273 273 274 274 275 276 277 277 278 278 280 281 283 284 285 288 291 292 294
271 271 271 271 270 270 270 270 269 269 269 268 268 268 269 269 269 269 269 270 270 271 271 271 272 273 273 273 274 275 276 276 276 277 279 279 281 282 283 284 286 288 291 292
268 268 268 269 268 268 268 268 268 268 268 268 268 267 268 268 268 269 269 269 269 270 271 271 272 272 272 273 274 275 275 275 275 277 278 279 280 281 282 284 285 287 289 290
268 266 266 267 267 267 266 266 266 266 266 266 267 267 267 268 268 268 268 269 269 270 270 270 271 272 272 273 273 274 274 275 275 277 278 279 279 280 282 283 284 285 288 289
267 268 267 267 266 266 265 265 265 265 264 265 265 266 266 267 267 268 268 268 269 270 270 270 271 272 272 273 274 274 274 274 275 276 277 278 279 280 281 282 284 285 287 289
266 266 266 266 265 265 265 264 263 263 263 263 264 265 265 266 266 267 267 268 268 269 270 270 271 271 272 273 273 273 273 274 275 276 277 278 279 280 281 282 283 284 286 288
265 265 265 265 264 264 263 263 263 263 263 263 263 264 265 265 265 266 267 267 268 268 269 270 270 271 273 273 272 272 273 274 275 276 276 277 278 279 280 281 282 284 285 286
265 264 264 263 263 263 262 262 262 262 262 263 263 264 264 265 265 266 266 267 268 269 269 269 270 271 273 272 272 272 273 274 274 275 276 277 278 279 279 280 281 283 284 285
264 264 263 262 262 262 261 261 261 262 262 263 263 264 264 264 265 265 266 266 267 269 268 269 269 271 273 272 272 272 273 274 274 275 275 276 277 278 279 280 281 282 283 284
264 263 262 262 261 261 261 261 262 262 262 263 263 263 264 264 264 265 266 266 267 268 268 268 269 270 271 271 271 272 273 273 274 274 275 275 276 277 278 279 280 281 282 283
263 262 261 261 261 261 261 261 261 261 262 262 263 263 263 264 264 264 265 265 266 267 267 268 268 269 269 270 271 272 272 273 273 274 274 275 276 277 278 279 279 281 281 282
262 261 261 261 261 261 261 261 261 261 262 262 262 262 263 263 264 264 264 265 265 265 267 267 267 267 269 270 271 271 272 272 273 273 274 275 275 276 277 278 279 280 281 282
262 261 261 261 261 261 261 261 261 261 262 262 262 262 262 263 263 263 264 264 265 266 266 267 268 268 269 270 270 271 271 272 272 273 274 274 275 275 276 277 278 279 280 281
261 261 261 261 261 261 261 261 261 261 262 262 262 262 263 263 263 263 263 264 265 266 266 267 267 268 269 269 270 270 271 272 272 273 273 274 275 275 276 277 278 278 279 280
Wind_Speed
16 17 6 9 17 12 17 20 11 25 13 14 7 10 11 7 7 11 17 21 23 26 27 26 27 28 29 28 25 23 21 17 15 13 10 12 28 31 40 44 60 57 55 58
5 12 15 19 25 20 22 22 21 23 22 5 9 9 9 7 4 9 15 20 22 24 25 26 26 27 28 28 26 23 22 20 17 14 10 9 20 33 34 45 52 64 52 57
8 3 5 8 23 21 9 4 10 10 13 7 3 6 10 7 6 7 14 19 22 23 24 25 26 25 26 26 25 25 24 21 18 15 9 2 16 26 37 43 48 56 53 52
3 2 6 5 1 2 8 5 10 4 5 5 7 8 8 8 6 7 12 18 21 21 23 24 25 25 25 24 23 23 22 20 19 16 9 3 10 18 26 35 41 54 55 51
4 6 9 12 6 7 8 8 11 14 6 8 8 3 7 12 5 10 15 16 19 18 21 23 24 25 26 26 25 24 25 23 22 19 12 6 4 9 17 30 38 46 51 53
3 5 7 6 3 7 3 7 6 12 11 9 12 2 3 8 9 14 15 15 17 17 18 20 22 24 25 26 28 28 26 24 22 19 14 9 5 6 11 20 35 39 46 46
18 14 8 5 8 9 6 7 5 14 12 15 5 4 2 7 11 14 16 17 16 16 17 19 21 23 24 25 27 27 26 22 19 18 18 14 9 9 10 15 27 36 45 43
7 6 14 14 8 8 3 4 13 14 13 13 7 5 6 8 12 15 17 18 16 17 18 17 20 22 23 24 26 26 27 26 25 22 15 11 9 8 7 11 19 29 39 38
11 6 2 30 3 11 7 11 12 15 14 10 7 6 7 10 13 15 16 18 16 17 20 17 18 20 23 23 25 26 26 23 19 16 14 11 7 7 4 5 11 19 26 32
2 4 4 23 7 12 10 10 12 11 11 9 7 6 8 11 13 14 15 16 18 20 19 19 19 19 20 22 24 25 26 24 22 20 20 13 10 9 8 5 5 13 18 28
3 2 2 11 17 15 14 12 13 11 10 8 7 7 9 10 12 13 14 16 19 19 20 20 21 20 19 21 23 25 26 24 22 20 22 20 16 13 10 7 5 8 21 26
5 4 2 1 23 20 18 17 14 12 10 8 9 9 10 11 12 13 15 17 19 19 19 19 20 20 19 19 21 23 24 26 24 25 24 20 18 12 6 8 8 9 13 25
2 8 6 12 18 19 18 15 12 10 9 8 9 10 11 12 12 11 15 17 19 19 19 20 20 19 18 20 21 22 22 24 24 23 21 20 19 17 17 4 7 9 9 15
11 12 9 14 8 16 13 11 8 8 8 9 10 11 12 12 11 12 14 16 18 19 18 19 19 17 16 19 19 20 19 19 21 23 22 19 17 15 13 14 11 6 6 7
5 2 3 11 12 13 11 10 9 9 9 10 11 11 12 13 12 12 12 15 17 19 18 17 17 15 16 19 19 20 21 22 25 24 20 18 16 13 13 13 12 8 4 6
7 6 8 9 9 8 8 7 8 8 9 11 11 11 12 13 13 12 12 14 17 19 18 16 15 15 17 20 19 19 20 21 24 22 19 16 14 14 13 12 11 9 5 6
9 6 8 9 8 6 5 6 7 8 10 11 12 13 13 14 13 12 11 12 14 16 16 15 17 16 20 17 20 19 21 24 22 18 15 14 13 14 12 11 10 9 6 7
5 3 6 4 4 4 6 7 9 11 12 12 13 14 14 14 13 12 12 12 13 13 11 12 15 15 22 15 18 18 22 25 21 17 15 14 14 15 13 11 10 11 7 7
6 4 3 2 3 6 8 9 10 11 11 13 13 13 13 12 11 11 12 12 12 14 7 13 14 16 12 19 15 19 24 22 18 15 14 13 14 13 13 11 9 9 7 5
5 3 3 5 7 8 8 9 11 11 10 12 11 10 10 9 9 10 11 11 10 12 11 16 17 15 10 16 18 26 26 20 17 15 14 13 13 12 12 10 9 8 7 4
5 5 7 8 7 8 9 10 11 11 9 9 9 7 7 7 7 9 10 11 8 6 14 14 17 11 16 14 26 28 21 18 15 14 14 13 12 11 11 10 8 6 6 4
7 8 8 8 8 7 8 9 11 10 7 4 4 5 6 7 7 7 8 9 10 6 13 18 16 10 19 25 25 19 17 15 14 13 12 11 11 11 10 9 7 6 4 3
8 7 7 8 8 8 7 9 8 6 3 1 2 3 5 6 7 10 9 5 11 10 17 18 13 16 21 23 17 15 14 13 12 13 12 11 9 9 8 7 6 5 4 2
7 7 7 8 8 7 7 5 5 4 4 3 3 6 8 10 7 6 9 12 11 14 16 14 16 15 19 16 15 13 13 12 10 12 10 10 9 7 7 6 5 3 2 2
6 6 6 6 7 5 4 5 4 2 2 3 4 8 9 10 11 10 11 11 12 13 14 14 14 14 14 14 14 13 11 11 11 11 9 8 7 5 4 3 3 2 1 1
5 5 4 3 4 4 4 3 2 5 5 6 6 9 7 8 7 9 11 11 12 13 13 13 13 13 12 13 14 13 12 9 9 8 8 7 5 4 3 2 2 1 1 2
5 5 6 6 5 3 3 3 5 4 6 7 7 10 7 8 9 10 11 10 10 11 10 11 11 11 11 12 12 12 11 10 8 8 7 6 5 4 3 2 1 0 1 4
Wind_Direction
242 258 203 244 252 199 208 229 229 270 240 259 241 214 234 259 311 316 318 328 333 335 339 345 346 344 343 346 345 344 333 324 314 313 289 247 207 219 207 215 226 228 227 222
263 243 240 247 257 246 232 239 246 261 270 218 206 200 216 263 286 304 317 325 327 332 336 341 342 342 342 345 345 344 341 332 326 326 299 256 200 227 211 207 217 222 222 221
265 5 338 264 247 240 225 193 204 212 244 158 196 213 223 234 241 291 316 323 324 329 332 337 338 340 342 344 343 345 346 341 326 328 312 282 218 223 209 207 222 220 218 219
258 24 256 251 186 158 216 228 218 282 220 188 187 199 242 234 245 295 317 320 322 326 329 334 335 338 339 343 348 347 345 339 332 335 341 299 227 224 219 199 207 219 223 219
237 199 298 297 190 169 173 259 203 218 187 197 183 222 264 195 261 306 316 318 318 321 325 330 335 336 339 342 346 350 349 345 341 341 349 317 242 230 229 209 207 220 220 216
155 226 242 233 216 182 139 283 189 186 181 165 160 198 251 208 276 300 311 316 316 319 323 328 335 337 340 343 345 349 349 344 340 342 340 339 330 270 238 212 204 210 220 226
231 238 268 190 159 151 121 243 154 182 172 159 175 179 145 285 299 307 312 317 318 316 321 332 335 335 339 342 345 345 343 340 339 341 354 355 325 283 253 224 207 203 218 220
220 239 254 142 110 182 182 100 142 152 163 175 193 228 273 293 305 315 316 317 318 316 324 330 334 335 338 340 341 343 342 341 347 351 351 349 311 293 258 237 213 209 211 212
197 214 104 177 142 188 155 153 165 167 175 186 205 237 275 296 308 315 317 318 316 317 321 325 331 337 335 338 341 342 341 343 339 341 351 346 336 304 289 245 219 207 215 219
142 187 193 189 197 176 175 178 175 184 187 203 223 250 278 292 302 310 316 316 317 319 319 322 327 331 334 337 338 339 339 340 340 347 345 353 350 344 355 332 248 204 196 218
260 119 91 215 211 194 186 183 180 182 193 209 236 258 277 287 296 308 311 311 316 320 319 320 322 326 332 335 337 338 337 338 340 348 348 357 355 352 343 306 300 233 208 205
225 162 144 224 198 196 185 181 187 193 197 221 253 268 275 285 297 309 307 313 314 317 315 317 319 324 328 332 335 336 335 337 339 346 354 353 345 343 330 320 290 252 228 214
166 156 125 144 167 181 181 181 193 208 224 241 258 268 275 285 296 297 302 308 309 314 318 318 319 325 328 330 332 337 335 335 340 338 345 350 350 352 340 272 269 238 236 228
126 125 108 152 168 176 186 190 199 232 252 260 265 271 279 286 290 296 303 308 309 312 317 318 317 323 325 328 328 331 330 333 334 338 341 344 340 352 334 326 319 254 240 248
155 172 151 174 169 181 194 208 225 241 253 259 266 270 274 280 285 291 299 306 309 312 316 313 310 318 325 328 328 333 335 336 338 335 336 334 338 335 323 329 323 310 283 237
139 130 139 165 176 192 211 228 242 248 258 263 265 266 268 277 287 294 300 306 309 312 316 316 313 322 325 326 328 334 334 335 335 332 328 328 332 328 327 325 320 306 313 321
155 153 170 178 186 202 225 246 257 263 266 272 273 274 275 277 282 287 290 294 300 305 309 310 316 321 322 322 333 329 331 331 329 323 318 319 318 324 328 330 330 324 322 301
193 166 175 180 200 234 256 267 274 279 285 283 278 279 280 279 287 289 294 299 303 303 304 307 309 321 316 314 326 330 324 323 322 323 322 318 322 321 327 328 350 346 330 293
176 172 174 213 267 273 272 271 276 285 294 292 290 282 279 281 284 289 296 304 308 307 302 322 320 319 313 328 329 317 324 322 320 320 320 318 318 326 329 334 334 335 339 315
194 222 280 296 293 286 280 284 287 295 301 293 290 287 280 280 286 291 295 300 306 305 334 337 321 319 305 328 326 327 322 318 318 322 322 326 327 328 331 333 327 324 320 325
234 272 284 286 283 281 281 284 291 298 295 289 291 288 288 293 296 300 304 304 307 292 333 313 329 317 335 326 320 319 316 315 319 324 324 329 330 329 327 328 330 329 320 311
263 272 274 274 275 276 275 286 295 301 299 293 292 296 299 303 303 298 304 309 322 329 321 324 329 332 331 314 315 316 318 314 318 324 323 321 327 329 327 326 330 333 323 308
262 262 261 261 274 282 281 291 294 295 266 267 318 311 308 313 315 321 318 314 331 341 320 318 330 328 319 316 320 322 323 319 316 327 324 324 322 320 323 323 327 332 330 307
252 253 249 262 278 282 291 259 280 290 268 231 289 306 306 300 295 310 309 314 320 331 321 330 337 333 319 327 332 327 329 327 319 319 326 322 319 321 318 317 314 323 328 296
239 246 255 264 279 274 281 244 246 215 211 225 285 312 307 300 299 310 313 321 324 328 330 333 335 337 338 341 341 339 334 336 336 329 329 324 320 320 327 321 310 298 255 229
234 243 235 241 266 272 253 251 253 232 256 271 293 307 300 299 294 297 306 312 321 326 330 335 342 345 346 353 353 350 349 341 340 338 339 335 336 333 327 330 321 297 190 184
237 208 245 269 277 244 205 269 267 270 258 280 300 314 294 299 303 307 308 309 316 324 331 340 346 350 356 1 3 7 11 11 6 2 355 343 348 336 328 322 21 98 137 145